Regional Weather Roundup
Issued by NWS

Home | Current Version | Previous Version | Graphics & Text | Print | Product List | Glossary On
Versions: 1 2 3 4 5 6 7 8 9 10 11 12 13 14 15 16 17 18 19 20 21 22 23 24 25 26 27 28 29 30 31 32 33 34 35 36 37 38 39 40 41 42 43 44 45 46 47 48 49 50
000
ASUS43 KLOT 040403
RWRIL

ILLINOIS REGIONAL WEATHER ROUNDUP
NATIONAL WEATHER SERVICE CHICAGO/ROMEOVILLE IL
1100 PM CDT TUE MAY 03 2016

NOTE: "FAIR" INDICATES FEW OR NO CLOUDS BELOW 12,000 FEET WITH NO
SIGNIFICANT WEATHER AND/OR OBSTRUCTIONS TO VISIBILITY.

* THESE STATIONS ARE NOT UNDER NWS QUALITY CONTROL. THEY ALSO MAY NOT
  REPORT WEATHER SUCH AS PRECIPITATION OR FOG.

ILZ001-002-007-009-015-016-024-040500-
NORTHWEST ILLINOIS

CITY           SKY/WX    TMP DP  RH WIND       PRES   REMARKS
MOLINE         PTCLDY    59  42  53 SW12      29.70F
STERLING*      PTCLDY    59  45  58 SW9       29.69F
$$

ILZ003-004-008-010-011-017-018-040500-
NORTH CENTRAL ILLINOIS

CITY           SKY/WX    TMP DP  RH WIND       PRES   REMARKS
ROCKFORD       CLOUDY    59  42  53 SW9       29.69F
FREEPORT*      CLOUDY    56  43  62 SW13      29.67F
DE KALB*       CLOUDY    56  44  62 SW13      29.70F
$$

ILZ005-006-012>014-019>023-040500-
NORTHEAST ILLINOIS

CITY           SKY/WX    TMP DP  RH WIND       PRES   REMARKS
CHICAGO-OHARE  CLOUDY    60  40  47 SW10      29.69F
CHICAGO-MIDWAY CLOUDY    61  39  44 SW9       29.71F
AURORA         MOCLDY    58  42  55 SW13      29.71F
LANSING*       CLOUDY    58  41  53 SW9       29.73F
WAUKEGAN       CLOUDY    58  42  55 SW13      29.65F
DUPAGE AIRPORT CLOUDY    57  41  55 SW10      29.69F
WHEELING       CLOUDY    59  40  49 S9        29.69F
NORTHERLY ISL    N/A     61  37  41 S7          N/A
NORTHERLY ISL    N/A     61  37  41 S7          N/A
$$

LMZ740>746-040500-
SOUTHERN LAKE MICHIGAN

STATION/POSITION SKY/WX   TEMP    WIND        PRES    VSBY  WAVE
                          AIR SEA DIR/SP/G                  HT/PER
                          (F)     (DEG/KT/KT) (MB)    (MI)  (FT/S)
SOUTHERN BUOY              46 41  200/ 10/ 12 1004.5F         1/ 3
HARRISON CRIB              63     230/ 15/ 19   N/A
BURNHAM HARBOR             61     220/  7/  9   N/A
CALUMET HARBOR             61     210/  7/ 10 1006.7F
BURNS HARBOR               61     210/ 10/ 13 1008.1F
MICHIGAN CITY              60     180/ 10/ 12   N/A
ST. JOSEPH                 53 50                N/A           1
$$

ILZ025>027-034>036-040-047-049-050-058-095>099-040500-
WEST-CENTRAL ILLINOIS

CITY           SKY/WX    TMP DP  RH WIND       PRES   REMARKS
QUINCY         CLOUDY    57  46  66 SW8       29.83F
MACOMB*        CLOUDY    57  45  64 SW13      29.80F
$$

ILZ028>032-037-038-041>044-048-051>054-059>061-040500-
CENTRAL ILLINOIS

CITY           SKY/WX    TMP DP  RH WIND       PRES   REMARKS
BLOOMINGTON    MOCLDY    55  45  69 SW10      29.80F
DECATUR        PTCLDY    55  44  66 SW10      29.84F
PEORIA         CLOUDY    58  41  53 SW10      29.78F
SPRINGFIELD    PTCLDY    57  44  62 SW10      29.83F
TAYLORVILLE    NOT AVBL
$$

ILZ033-039-045-046-055>057-062-063-040500-
EAST-CENTRAL ILLINOIS

CITY           SKY/WX    TMP DP  RH WIND       PRES   REMARKS
CHAMPAIGN      PTCLDY    54  45  71 SW13      29.82F
MATTOON        MOCLDY    54  44  69 SW8       29.84F
$$

ILZ079-100>102-040500-
SOUTHWEST ILLINOIS

CITY           SKY/WX    TMP DP  RH WIND       PRES   REMARKS
BELLEVILLE     CLEAR     52  47  84 SW6       29.89F
CAHOKIA*       MOCLDY    52  46  80 CALM      29.90F
SPARTA*        CLEAR     52  45  76 SW3       29.93F
$$

ILZ064>066-069>071-074>076-080>082-084>086-088>090-092>094-040500-
SOUTH-CENTRAL ILLINOIS

CITY           SKY/WX    TMP DP  RH WIND       PRES   REMARKS
CARBONDALE     CLEAR     48  44  86 SW5       29.93F
MT. VERNON     PTCLDY    48  43  81 CALM      29.91F
SALEM*         CLEAR     52  46  79 SW5       29.89F
$$

ILZ067-068-072-073-078-083-087-091-040500-
SOUTHEAST ILLINOIS

CITY           SKY/WX    TMP DP  RH WIND       PRES   REMARKS
LAWRENCEVILLE  CLOUDY    56  46  69 W7        29.88F
FLORA*         CLOUDY    54  46  75 W6        29.90F
HARRISBURG*    PTCLDY    53  47  79 SW3       29.92F
ROBINSON*      PTCLDY    54  47  75 W9        29.88F
$$

ABBREVIATIONS USED IN REMARKS
   TC - TEMPERATURE IN CELSIUS
  WCI - WIND CHILL INDEX
   HX - HEAT INDEX
  VSB - VISIBILITY
$$





USA.gov is the U.S. government's official web portal to all federal, state and local government web resources and services.